FW8815 Weather Reports


time (UTC)temp
F
wind
direction
speed
knots
gust
knots
rain 1hr
in
rain 24hr
in
rain mn
in
humidity
%
barometer
mb
20260504214320 59 213 0.9 0.9 0.00 0.00 0.00 98 1018.8
20260504212815 59 217 0.0 0.9 0.00 0.00 0.00 98 1018.9
20260504211310 59 238 0.0 0.0 0.00 0.00 0.00 97 1019.0
20260504205808 60 235 0.0 0.0 0.00 0.00 0.00 97 1019.2
20260504204308 60 238 0.0 0.9 0.00 0.00 0.00 96 1019.2
20260504202804 61 111 0.9 0.9 0.00 0.00 0.00 95 1019.4
20260504201301 62 106 0.0 0.0 0.00 0.00 0.00 92 1019.5
20260504195757 62 228 0.0 0.0 0.00 0.00 0.00 93 1019.7
20260504194252 62 259 0.0 0.0 0.00 0.00 0.00 93 1020.0
20260504192750 61 241 0.0 0.0 0.00 0.00 0.00 93 1019.8
20260504191249 62 255 0.0 0.0 0.00 0.00 0.00 92 1019.6
20260504185749 63 222 0.9 0.9 0.00 0.00 0.00 92 1019.4
20260504184244 62 202 0.0 0.0 0.00 0.00 0.00 93 1019.4
20260504182741 62 227 0.0 0.0 0.00 0.00 0.00 93 1019.6
20260504181238 62 207 0.0 0.0 0.00 0.00 0.00 93 1019.6
20260504175733 62 234 0.0 0.0 0.00 0.00 0.00 93 1019.5
20260504174231 63 236 0.0 0.0 0.00 0.00 0.00 92 1019.3
20260504172726 63 242 0.0 0.0 0.00 0.00 0.00 92 1019.3
20260504171222 64 233 0.0 0.0 0.00 0.00 0.00 90 1019.6
20260504141148 75 264 0.9 0.9 0.00 0.00 0.00 70 1019.5
20260504081048 70 288 0.9 2.6 0.00 0.00 0.00 82 1024.0
20260504045507 52 240 0.0 0.0 0.00 0.00 0.00 99 1023.5
20260504044003 52 241 0.0 0.0 0.00 0.00 0.00 99 1023.6
20260504042500 51 232 0.0 0.0 0.00 0.00 0.00 99 1023.3
20260504041000 51 232 0.0 0.0 0.00 0.00 0.00 99 1023.4
20260504035457 51 233 0.0 0.0 0.00 0.00 0.00 99 1023.3
20260504033953 51 229 0.0 0.0 0.00 0.00 0.00 99 1023.2
20260504032451 52 243 0.0 0.0 0.00 0.00 0.00 99 1023.1
20260504030947 52 255 0.0 0.0 0.00 0.00 0.00 99 1023.3
20260504025443 52 259 0.0 0.0 0.00 0.00 0.00 99 1022.8
20260504023940 53 260 0.0 0.0 0.00 0.00 0.00 99 1022.6
20260504022440 53 239 0.0 0.0 0.00 0.00 0.00 99 1022.7
20260504020937 53 221 0.0 0.9 0.00 0.00 0.00 99 1022.8
20260504015432 53 241 0.0 0.0 0.00 0.00 0.00 99 1022.8
20260504013932 54 247 0.0 0.0 0.00 0.00 0.00 99 1022.9
20260504012430 54 227 0.0 0.0 0.00 0.00 0.00 99 1022.7
20260504010926 54 220 0.0 0.9 0.00 0.00 0.00 99 1023.2
20260504005421 54 232 0.0 0.0 0.00 0.00 0.00 99 1023.2
20260504003919 54 222 0.0 0.9 0.00 0.00 0.00 99 1023.2
20260504002415 54 223 0.0 0.0 0.00 0.00 0.00 99 1023.4
20260504000911 54 230 0.0 0.0 0.00 0.00 0.00 99 1023.5
20260503235410 55 284 0.0 0.0 0.00 0.00 0.00 99 1023.6
20260503233908 55 215 0.0 0.9 0.00 0.00 0.00 98 1023.7
20260503232404 55 230 0.0 0.0 0.00 0.00 0.00 99 1023.9
20260503230901 55 243 0.0 0.0 0.00 0.00 0.00 99 1023.9
20260503225357 55 215 0.0 0.0 0.00 0.00 0.00 99 1024.0
20260503223854 55 187 0.9 0.9 0.00 0.00 0.00 99 1024.2
20260503222352 55 241 0.0 0.0 0.00 0.00 0.00 99 1024.1
20260503220849 56 247 0.0 0.0 0.00 0.00 0.00 98 1024.1
20260503215347 56 227 0.0 0.0 0.00 0.00 0.00 98 1024.3